User: anonymous   Login
Location: Oshawa
(43.9000°N, 78.8670°W)
Time: 08:26:19
(UTC-05:00)
Language:

SPOT 5 - Orbit

View from above orbital plane
View from above orbital plane
View from above satellite
View from above satellite

Ground track
Ground track

The orbit data is extracted from the following two-line orbital elements,

1 27421U 02021A   18023.19458968  .00000009  00000-0  13615-4 0  9994
2 27421  98.3787  91.3927 0135745  15.3470 345.1789 14.51911164817596
Epoch (UTC): 23 January 2018 04:40:12
Eccentricity: 0.0135745
inclination: 98.3787°
perigee height: 623 km
apogee height: 816 km
right ascension of ascending node: 91.3927°
argument of perigee: 15.3470°
revolutions per day: 14.51911164
mean anomaly at epoch: 345.1789°
orbit number at epoch: 81759

The dashed part of the orbit path shows where the satellite is in the earth's shadow,  

DLR